XMM-NEWTON

Last updated on Thu Jul 03 2025 00:03:31 GMT+0000 (Coordinated Universal Time)

1 25989U 99066A 25185.32618667 .00000018 00000+0 00000+0 0 9990 2 25989 66.1748 287.5845 4834589 70.9885 0.1204 0.50136440 21265
UTC large
Height (km)
Speed (km/s)
/
Latitude / Longitude
Inclination (degrees)
Orbital Period (minutes)
Azimuth
Elevation
Range (km)
Doppler Factor

Next 0 passes for location: London (51.5072 / 0.1276)

Sorry there are no passes over London.